This is the latest recevied weather packets stored in our database for station/object KB4KY. If no packets are shown the sender has not sent any weather packets the latest 10 day(s).
| Time | Temp. | Humidity | Pressure | Rain* | Wind** | Luminosity | Snow |
|---|---|---|---|---|---|---|---|
| 1777739294 | 13.33° C | 58% | 1017.9 hPa | 0 mm | - | - | - |
| 1777738992 | 13.33° C | 60% | 1018 hPa | 0 mm | - | - | - |
| 1777738693 | 13.33° C | 58% | 1018.1 hPa | 0 mm | - | - | - |
| 1777738395 | 13.33° C | 59% | 1018.2 hPa | 0 mm | - | - | - |
| 1777738091 | 12.78° C | 60% | 1018.1 hPa | 0 mm | - | - | - |
| 1777737794 | 12.78° C | 61% | 1018.2 hPa | 0 mm | - | - | - |
| 1777737492 | 13.33° C | 59% | 1018.1 hPa | 0 mm | - | - | - |
| 1777737196 | 13.33° C | 66% | 1018.2 hPa | 0 mm | - | - | - |
| 1777736892 | 12.78° C | 62% | 1018.3 hPa | 0 mm | - | - | - |
| 1777736593 | 13.33° C | 61% | 1018.4 hPa | 0 mm | - | - | - |
| 1777736292 | 13.89° C | 61% | 1018.5 hPa | 0 mm | - | - | - |
| 1777735991 | 13.33° C | 62% | 1018.5 hPa | 0 mm | - | - | - |
| 1777735691 | 13.89° C | 61% | 1018.5 hPa | 0 mm | - | - | - |
| 1777735392 | 13.89° C | 60% | 1018.6 hPa | 0 mm | - | - | - |
| 1777734795 | 12.78° C | 68% | 1018.5 hPa | 0 mm | - | - | - |
| 1777734492 | 12.78° C | 62% | 1018.5 hPa | 0 mm | - | - | - |
| 1777734199 | 12.78° C | 66% | 1018.5 hPa | 0 mm | - | - | - |
| 1777733889 | 13.33° C | 65% | 1018.6 hPa | 0 mm | - | - | - |
| 1777733598 | 12.78° C | 67% | 1018.6 hPa | 0 mm | - | - | - |
| 1777733290 | 12.78° C | 65% | 1018.7 hPa | 0 mm | - | - | - |
| 1777732999 | 12.22° C | 68% | 1018.9 hPa | 0 mm | - | - | - |
| 1777732395 | 11.67° C | 68% | 1019 hPa | 0 mm | - | - | - |
| 1777732088 | 11.11° C | 73% | 1019.1 hPa | 0 mm | - | - | - |
| 1777731785 | 10.56° C | 72% | 1019 hPa | 0 mm | - | - | - |
| 1777731491 | 10.56° C | 73% | 1019 hPa | 0 mm | - | - | - |
* Rain latest hour (hover to see other rain measurements)
** Current wind speed in m/s (hover to see current wind gust speed)